| time (UTC) | temp F | wind direction | speed knots | gust knots | rain 1hr in | rain 24hr in | rain mn in | humidity % | barometer mb |
| 20260503184531 | 61 | 360 | 3.5 | 13.0 | 0.00 | 0.00 | 0.00 | 46 | 1010.1 |
| 20260503183031 | 61 | 360 | 7.0 | 14.8 | 0.00 | 0.00 | 0.00 | 41 | 1010.5 |
| 20260503181538 | 61 | 5 | 4.3 | 13.0 | 0.00 | 0.00 | 0.00 | 45 | 1010.7 |
| 20260503180042 | 61 | 360 | 6.1 | 10.4 | 0.00 | 0.00 | 0.00 | 45 | 1010.7 |
| 20260503174559 | 60 | 360 | 3.5 | 10.4 | 0.00 | 0.00 | 0.00 | 46 | 1011.1 |
| 20260503173055 | 59 | 360 | 6.1 | 13.0 | 0.00 | 0.00 | 0.00 | 45 | 1011.5 |
| 20260503171604 | 59 | 360 | 6.1 | 11.3 | 0.00 | 0.00 | 0.00 | 46 | 1011.6 |
| 20260503170109 | 58 | 360 | 6.1 | 13.0 | 0.00 | 0.00 | 0.00 | 45 | 1011.8 |
| 20260503081532 | 38 | 360 | 0.0 | 0.0 | 0.00 | 0.00 | 0.00 | 62 | 1014.1 |
| 20260503071524 | 38 | 360 | 0.0 | 0.0 | 0.00 | 0.00 | 0.00 | 64 | 1014.4 |
| 20260503054559 | 38 | 360 | 0.0 | 0.9 | 0.00 | 0.00 | 0.00 | 62 | 1015.1 |
| 20260503053058 | 38 | 360 | 0.0 | 0.0 | 0.00 | 0.00 | 0.00 | 59 | 1015.2 |
| 20260503051558 | 38 | 360 | 0.0 | 0.0 | 0.00 | 0.00 | 0.00 | 61 | 1015.2 |
| 20260503050056 | 38 | 360 | 0.0 | 0.0 | 0.00 | 0.00 | 0.00 | 59 | 1015.4 |
| 20260503044555 | 38 | 360 | 0.0 | 0.0 | 0.00 | 0.00 | 0.00 | 58 | 1015.4 |
| 20260503043054 | 38 | 360 | 0.0 | 0.0 | 0.00 | 0.00 | 0.00 | 59 | 1015.5 |
| 20260503041553 | 38 | 360 | 0.0 | 0.0 | 0.00 | 0.00 | 0.00 | 60 | 1015.5 |
| 20260503040050 | 38 | 360 | 0.0 | 0.0 | 0.00 | 0.00 | 0.00 | 60 | 1015.5 |
| 20260503034603 | 38 | 360 | 0.0 | 0.0 | 0.00 | 0.00 | 0.00 | 60 | 1015.6 |
| 20260503033055 | 38 | 360 | 0.0 | 0.0 | 0.00 | 0.00 | 0.00 | 63 | 1015.7 |
| 20260503031553 | 39 | 360 | 0.0 | 0.0 | 0.00 | 0.00 | 0.00 | 62 | 1015.8 |
| 20260503030047 | 40 | 360 | 0.0 | 0.0 | 0.00 | 0.00 | 0.00 | 60 | 1015.8 |
| 20260503024549 | 40 | 360 | 0.0 | 0.0 | 0.00 | 0.00 | 0.00 | 54 | 1015.9 |
| 20260503023044 | 41 | 360 | 0.0 | 0.0 | 0.00 | 0.00 | 0.00 | 56 | 1016.0 |
| 20260503021544 | 41 | 360 | 0.0 | 0.0 | 0.00 | 0.00 | 0.00 | 55 | 1015.9 |
| 20260503020044 | 42 | 360 | 0.0 | 0.0 | 0.00 | 0.00 | 0.00 | 58 | 1015.8 |
| 20260503014545 | 43 | 360 | 0.0 | 0.0 | 0.00 | 0.00 | 0.00 | 49 | 1015.9 |
| 20260503013042 | 44 | 360 | 0.0 | 0.0 | 0.00 | 0.00 | 0.00 | 47 | 1015.7 |
| 20260503011545 | 44 | 360 | 0.0 | 0.0 | 0.00 | 0.00 | 0.00 | 46 | 1015.6 |
| 20260503010007 | 45 | 360 | 0.0 | 2.6 | 0.00 | 0.00 | 0.00 | 46 | 1015.5 |
| 20260503004529 | 46 | 360 | 0.0 | 2.6 | 0.00 | 0.00 | 0.00 | 45 | 1015.5 |
| 20260503003049 | 47 | 360 | 0.9 | 2.6 | 0.00 | 0.00 | 0.00 | 43 | 1015.4 |
| 20260503001610 | 47 | 360 | 2.6 | 4.3 | 0.00 | 0.00 | 0.00 | 41 | 1015.4 |
| 20260503000113 | 48 | 360 | 1.7 | 5.2 | 0.00 | 0.00 | 0.00 | 42 | 1015.2 |
| 20260502234518 | 49 | 360 | 0.0 | 2.6 | 0.00 | 0.00 | 0.00 | 44 | 1015.2 |
| 20260502233033 | 49 | 360 | 0.0 | 3.5 | 0.00 | 0.00 | 0.00 | 45 | 1015.3 |
| 20260502231539 | 49 | 360 | 0.9 | 3.5 | 0.00 | 0.00 | 0.00 | 45 | 1015.4 |
| 20260502230057 | 49 | 5 | 0.0 | 3.5 | 0.00 | 0.00 | 0.00 | 45 | 1015.4 |
| 20260502224611 | 49 | 360 | 0.0 | 3.5 | 0.00 | 0.00 | 0.00 | 46 | 1015.5 |
| 20260502223015 | 49 | 360 | 1.7 | 4.3 | 0.00 | 0.00 | 0.00 | 44 | 1015.4 |
| 20260502221521 | 48 | 360 | 2.6 | 7.0 | 0.00 | 0.00 | 0.00 | 43 | 1015.5 |
| 20260502220036 | 49 | 5 | 0.9 | 3.5 | 0.00 | 0.00 | 0.00 | 47 | 1015.4 |
| 20260502214558 | 49 | 360 | 0.9 | 4.3 | 0.00 | 0.00 | 0.00 | 46 | 1015.5 |
| 20260502213100 | 49 | 80 | 1.7 | 3.5 | 0.00 | 0.00 | 0.00 | 47 | 1015.6 |
| 20260502211504 | 48 | 360 | 2.6 | 7.0 | 0.00 | 0.00 | 0.00 | 45 | 1015.7 |
| 20260502210013 | 50 | 360 | 1.7 | 5.2 | 0.00 | 0.00 | 0.00 | 45 | 1015.7 |
| 20260502204519 | 47 | 360 | 2.6 | 5.2 | 0.00 | 0.00 | 0.00 | 48 | 1016.0 |
| 20260502203032 | 47 | 360 | 2.6 | 5.2 | 0.00 | 0.00 | 0.00 | 46 | 1016.1 |
| 20260502201551 | 48 | 360 | 2.6 | 7.0 | 0.00 | 0.00 | 0.00 | 47 | 1016.2 |
| 20260502200107 | 48 | 360 | 2.6 | 7.0 | 0.00 | 0.00 | 0.00 | 45 | 1016.3 |
| 20260502194503 | 47 | 360 | 2.6 | 10.4 | 0.00 | 0.00 | 0.00 | 46 | 1016.5 |
| 20260502193021 | 48 | 30 | 3.5 | 9.6 | 0.00 | 0.00 | 0.00 | 44 | 1016.6 |
| 20260502191535 | 48 | 11 | 3.5 | 8.7 | 0.00 | 0.00 | 0.00 | 44 | 1016.7 |
| 20260502190056 | 49 | 360 | 1.7 | 5.2 | 0.00 | 0.00 | 0.00 | 44 | 1016.8 |